Meeting Normand 1 - NORMANDIE

Compétition Régionale

DEAUVILLE

Du Samedi 07 Fevrier 2009 au Dimanche 08 Fevrier 2009

Bassin de 50m

200 Nage Libre Dames

Finale A

Nom Année Temps Pts Club Pays
1 SEMENT Hélène 1990 2:08:52 1186 CN LE HAVRE FRA
2 HUBERT Hélène 1990 2:08:91 1179 EN CAEN FRA
3 TOPPET Victoria 1995 2:11:22 1143 MULHOUSE ON FRA
4 FERREC Marion 1993 2:13:91 1101 CERCLE DES NAGEURS ST-BRIEUC FRA
5 SERRAND-BRIXTEL Alicia 1994 2:13:92 1100 EN CAEN FRA
6 VEZILIER Sandra 1991 2:16:65 1059 RACING CLUB ARRAS FRA
7 LAFFITTE Béatrice 1992 2:17:28 1049 OCTEVILLE NATATION FRA
8 SERRE Marie 1994 2:17:88 1040 RACING CLUB ARRAS FRA
9 KIM Barbara 1995 2:18:73 1027 CN LE HAVRE FRA
10 NOEL Alice 1991 2:19:24 1020 EN CAEN FRA
11 VALLEE Marina 1995 2:20:43 1002 CNP DE SAINT-LO FRA
12 LUCAS Océane 1993 2:20:58 1000 CNP DE SAINT-LO FRA
13 BRUMENT Anne 1994 2:20:86 996 STADE ST-VALERY NATATION FRA
14 MONNIER Laurine 1990 2:22:45 972 ESPÉRANCE VAILLANTE GRANVILLE FRA
15 HUGUET Christina 1994 2:23:13 962 CNM DIEPPE FRA
16 TANGUY Margaux 1994 2:24:92 937 C VIKINGS DE ROUEN FRA
17 TROADEC Caroline 1992 2:25:11 934 OCTEVILLE NATATION FRA
18 BUIS Marion 1991 2:26:73 911 OCTEVILLE NATATION FRA
19 LEROY Fanny 1993 2:26:77 910 CNM DIEPPE FRA
20 GRUET Gwenaëlle 1993 2:27:24 904 CN VITRÉ FRA
21 BARBEY Justine 1993 2:32:05 838 CNP DE SAINT-LO FRA

Séries

Nom Année Temps Pts Club Pays
1 HUBERT Hélène 1990 2:09:58 1169 EN CAEN FRA
2 SERRAND-BRIXTEL Alicia 1994 2:13:30 1110 EN CAEN FRA
3 TOPPET Victoria 1995 2:13:56 1106 MULHOUSE ON FRA
4 SEMENT Hélène 1990 2:16:02 1068 CN LE HAVRE FRA
5 FERREC Marion 1993 2:16:54 1060 CERCLE DES NAGEURS ST-BRIEUC FRA
6 VEZILIER Sandra 1991 2:18:21 1035 RACING CLUB ARRAS FRA
7 NOEL Alice 1991 2:19:28 1019 EN CAEN FRA
8 SERRE Marie 1994 2:19:37 1018 RACING CLUB ARRAS FRA
9 VALLEE Marina 1995 2:19:94 1009 CNP DE SAINT-LO FRA
10 LUCAS Océane 1993 2:20:96 994 CNP DE SAINT-LO FRA
11 BRUMENT Anne 1994 2:21:33 989 STADE ST-VALERY NATATION FRA
12 MONNIER Laurine 1990 2:22:12 977 ESPÉRANCE VAILLANTE GRANVILLE FRA
13 HUGUET Christina 1994 2:22:83 967 CNM DIEPPE FRA
14 TANGUY Margaux 1994 2:24:95 936 C VIKINGS DE ROUEN FRA
15 KIM Barbara 1995 2:25:45 929 CN LE HAVRE FRA
16 LEROY Fanny 1993 2:26:26 918 CNM DIEPPE FRA
17 NOEL Cécile 1994 2:26:77 910 EN CAEN FRA
18 BUIS Marion 1991 2:27:39 902 OCTEVILLE NATATION FRA
19 BARBEY Justine 1993 2:27:88 895 CNP DE SAINT-LO FRA
20 LE MILLOUR Gladys 1991 2:28:47 887 CN COUTANCES FRA
21 GADOULET Mélanie 1994 2:28:74 883 UN PLOËRMEL FRA
22 PORTRAIT Océane 1994 2:28:86 881 OCTEVILLE NATATION FRA
23 RAULT Isaline 1994 2:29:14 877 USM VIRE FRA
24 ADAM Camille 1995 2:30:13 864 CNP DE SAINT-LO FRA
25 TROADEC Caroline 1992 2:30:46 859 OCTEVILLE NATATION FRA
26 GRUET Gwenaëlle 1993 2:30:65 857 CN VITRÉ FRA
27 POIRIER Laetitia 1994 2:31:03 851 MARSOUINS HÉROUVILLE FRA
28 BALANCHE Kelly 1996 2:31:21 849 CNP DE SAINT-LO FRA
29 PAIN Clarisse 1994 2:35:64 790 OLYMPIQUE ARGENTAN FRA
30 LAFFITTE Béatrice 1992 2:43:20 694 OCTEVILLE NATATION FRA
RACING CLUB ARRAS